User: anonymous   Login
Location: Unspecified
(0.0000°N, 0.0000°E)
Time: 16:58:31
(UTC+00:00)
Language:

Kyokko - Orbit

View from above orbital plane
View from above orbital plane
View from above satellite
View from above satellite

Ground track
Ground track

The orbit data is extracted from the following two-line orbital elements,

1 10664U 78014A   18174.84414855 -.00000073 +00000-0 -40999-4 0  9994
2 10664 065.3708 057.6708 1906350 001.7663 358.8867 10.75477971569236
Epoch (UTC): 23 June 2018 20:15:34
Eccentricity: 0.1906350
inclination: 65.3708°
perigee height: 639 km
apogee height: 3944 km
right ascension of ascending node: 57.6708°
argument of perigee: 1.7663°
revolutions per day: 10.75477971
mean anomaly at epoch: 358.8867°
orbit number at epoch: 56923

The dashed part of the orbit path shows where the satellite is in the earth's shadow,  

DLR